Simultaneous Nadir Overpasses (SNOs) Predictions

Prediction of SNOs between GOES-16 and NOAA-20 Satellite Orbit:

Table of predicted SNOs for the next 14.0 days since TLE Epoch: 2/1/2019
Index Date Time (GOES-16) GOES-16 Lat,Lon NOAA-20 Lat,Lon Distance(km) Time Diff (sec)
1 02/02/2019 18:33:00 -0.01, -75.19 -0.49, -77.24 234.29 80
2 02/03/2019 18:16:57 -0.01, -75.18 0.56, -72.71 281.66 80
3 02/05/2019 06:38:45 0.01, -75.17 0.65, -77.98 319.92 80
4 02/06/2019 06:17:22 0.01, -75.17 -0.39, -73.45 196.36 80
5 02/07/2019 18:39:19 -0.00, -75.18 -0.78, -78.76 407.05 80
6 02/08/2019 18:20:35 -0.00, -75.19 0.20, -74.22 109.68 80
7 02/10/2019 06:45:04 0.00, -75.19 0.95, -79.50 490.66 80
8 02/11/2019 06:23:39 0.00, -75.20 -0.04, -74.96 26.29 80
9 02/13/2019 18:29:32 -0.00, -75.22 -0.14, -75.73 59.27 80
10 02/14/2019 18:10:49 -0.00, -75.23 0.90, -71.21 457.96 80




NCC Satellite Simultaneous Nadir Overpasses (SNOs) Prediction Service
